Location: Bushey
(51.6333°N, 0.3667°W)
Time: 21:37:00
(UTC+00:00)

Cosmos 1943 Rocket - Pass Details

Date: 03 March 2021
Orbit: 811 x 844 km, 71.0° (Epoch: 15 April)

Event Time Altitude Azimuth Distance (km) Brightness Sun altitude
Rises 20:41:31 0° 330° (NNW) 3,416 6.2 -27.4°
Reaches altitude 10° 20:44:16 10° 341° (NNW) 2,478 5.2 -27.8°
Enters shadow 20:48:31 30° 28° (NNE) 1,486 3.4 -28.4°
